Regional Weather Roundup
Issued by NWS

Home | Current Version | Previous Version | Graphics & Text | Print | Product List | Glossary On
Versions: 1 2 3 4 5 6 7 8 9 10 11 12 13 14 15 16 17 18 19 20 21 22 23 24 25 26 27 28 29 30 31 32 33 34 35 36 37 38 39 40 41 42 43 44 45 46 47 48 49 50
000
ASUS43 KLOT 271209
RWRIL

ILLINOIS REGIONAL WEATHER ROUNDUP
NATIONAL WEATHER SERVICE CHICAGO/ROMEOVILLE IL
700 AM CDT SAT AUG 27 2016

NOTE: "FAIR" INDICATES FEW OR NO CLOUDS BELOW 12,000 FEET WITH NO
SIGNIFICANT WEATHER AND/OR OBSTRUCTIONS TO VISIBILITY.

* THESE STATIONS ARE NOT UNDER NWS QUALITY CONTROL. THEY ALSO MAY NOT
  REPORT WEATHER SUCH AS PRECIPITATION OR FOG.

ILZ001-002-007-009-015-016-024-271300-
NORTHWEST ILLINOIS

CITY           SKY/WX    TMP DP  RH WIND       PRES   REMARKS
MOLINE         CLOUDY    70  67  90 VRB3      30.02R
6HR MIN TEMP:  68; 6HR MAX TEMP:  72; 6HR PCP:  0.01;

STERLING*      CLOUDY    68  68 100 E3        30.06R FOG
SAVANNA*       CLOUDY    67  66  96 CALM      30.04R FOG
$$

ILZ003-004-008-010-011-017-018-271300-
NORTH CENTRAL ILLINOIS

CITY           SKY/WX    TMP DP  RH WIND       PRES   REMARKS
ROCKFORD       LGT RAIN  67  64  90 E8        30.07R
6HR MIN TEMP:  65; 6HR MAX TEMP:  67; 6HR PCP:  0.41;

FREEPORT*      CLOUDY    64  63  96 E6        30.08R
ROCHELLE*      LGT RAIN  67  66  98 E5        30.07R
DE KALB*       CLOUDY    67  67  98 E7        30.08R FOG
$$

ILZ005-006-012>014-019>023-271300-
NORTHEAST ILLINOIS

CITY           SKY/WX    TMP DP  RH WIND       PRES   REMARKS
CHICAGO-OHARE  RAIN      70  69  97 CALM      30.09R FOG
6HR MIN TEMP:  67; 6HR MAX TEMP:  70; 6HR PCP:  0.63;

CHICAGO-MIDWAY LGT RAIN  71  69  93 E3        30.09S FOG
6HR MIN TEMP:  70; 6HR MAX TEMP:  72; 6HR PCP:  0.62;

AURORA         LGT RAIN  70  68  93 SE9       30.07S FOG
6HR MIN TEMP:  67; 6HR MAX TEMP:  70; 6HR PCP:  0.65;

LANSING*       RAIN      69  69 100 CALM      30.09F
JOLIET*        RAIN      71  70  99 SE8       30.07F
WAUKEGAN       LGT RAIN  68  67  96 S3        30.10R
6HR MIN TEMP:  66; 6HR MAX TEMP:  68; 6HR PCP:  0.11;

DUPAGE AIRPORT RAIN      69  66  90 SE8       30.07R FOG
6HR MIN TEMP:  67; 6HR MAX TEMP:  69; 6HR PCP:  0.75;

KANKAKEE*      MOCLDY    70  69  98 CALM      30.09R
WHEELING       HVY RAIN  69  68  96 SE5       30.09R FOG
6HR MIN TEMP:  67; 6HR MAX TEMP:  69; 6HR PCP:  0.51;

MORRIS*        RAIN      70  69  97 SE6       30.07R
ROMEOVILLE*    HVY RAIN  69  69 100 E7        30.07F
NORTHERLY ISL    N/A     69  67  93 E5          N/A
$$

LMZ740>746-271300-
SOUTHERN LAKE MICHIGAN

STATION/POSITION SKY/WX   TEMP    WIND        PRES    VSBY  WAVE
                          AIR SEA DIR/SP/G                  HT/PER
                          (F)     (DEG/KT/KT) (MB)    (MI)  (FT/S)
SOUTHERN BUOY              71 74  120/ 14/ 16 1018.4R         2/ 4
WILMETTE HARBOR            69 69  180/  6/ 10   N/A           2/ 4
HARRISON CRIB              71     170/ 10/ 12   N/A
BURNHAM HARBOR             69     130/  2/  7   N/A
CALUMET HARBOR             69     130/  5/  7 1018.4R
BURNS HARBOR               69     230/  2/ 22 1019.6R
MICHIGAN CITY              71     240/  6/  8   N/A
MICHIGAN CITY 6N           70 74   50/  6/  8   N/A           1/ 4
ST. JOSEPH                 69 75  290/  8/ 14 1020.0R         1
$$

ILZ025>027-034>036-040-047-049-050-058-095>099-271300-
WEST-CENTRAL ILLINOIS

CITY           SKY/WX    TMP DP  RH WIND       PRES   REMARKS
QUINCY         CLOUDY    70  70 100 S3        30.05R
GALESBURG*     MOCLDY    69  68  98 S6        30.04S
MACOMB*        MOCLDY    68  68 100 S5        30.07R
JACKSONVILLE*  CLOUDY    71  70  96 SW3       30.05S
PITTSFIELD*    DRIZZLE   71  70  98 S3        30.06R
$$

ILZ028>032-037-038-041>044-048-051>054-059>061-271300-
CENTRAL ILLINOIS

CITY           SKY/WX    TMP DP  RH WIND       PRES   REMARKS
PONTIAC        CLOUDY    72  72 100 CALM      30.08S
BLOOMINGTON    LGT RAIN  71  70  96 W5        30.10R FOG
DECATUR        CLOUDY    72  70  93 CALM      30.09R
PEORIA         LGT RAIN  70  70 100 S7        30.05F
6HR MIN TEMP:  70; 6HR MAX TEMP:  71; 6HR PCP:  0.89;

LACON*         RAIN      69  68  97 SE7       30.04S
LINCOLN*       CLOUDY    72  72 100 CALM      30.07F
SPRINGFIELD    CLOUDY    73  71  93 NE3       30.07S
6HR MIN TEMP:  73; 6HR MAX TEMP:  76; 6HR PCP:  0.02;

TAYLORVILLE    CLOUDY    71  71  99 CALM      30.09R FOG
6HR MIN TEMP:  71; 6HR MAX TEMP:  73;

$$

ILZ033-039-045-046-055>057-062-063-271300-
EAST-CENTRAL ILLINOIS

CITY           SKY/WX    TMP DP  RH WIND       PRES   REMARKS
CHAMPAIGN      CLOUDY    70  68  93 S5        30.10R
RANTOUL*       CLOUDY    72  71  97 S3        30.09R
MATTOON        MOCLDY    70  68  93 S5        30.10R
PARIS*         MOCLDY    71  71 100 CALM      30.12R FOG
$$

ILZ079-100>102-271300-
SOUTHWEST ILLINOIS

CITY           SKY/WX    TMP DP  RH WIND       PRES   REMARKS
ALTON          MOCLDY    70  70 100 CALM      30.08R
BELLEVILLE     CLOUDY    72  72 100 CALM      30.06R
CAHOKIA*       CLOUDY    73  69  87 CALM      30.07R
SPARTA*        MOCLDY    68  68  99 CALM      30.08R
$$

ILZ064>066-069>071-074>076-080>082-084>086-088>090-092>094-271300-
SOUTH-CENTRAL ILLINOIS

CITY           SKY/WX    TMP DP  RH WIND       PRES   REMARKS
CARBONDALE     PTCLDY    68  66  93 CALM      30.08R FOG
6HR MIN TEMP:  68; 6HR MAX TEMP:  72;

CAIRO*         PTCLDY    69  69 100 CALM      30.07R
EFFINGHAM*     PTCLDY    70  70 100 CALM      30.12R FOG
MARION         MOCLDY    70  68  94 NW5       30.09R
MT. VERNON     MOCLDY    70  64  83 CALM      30.10R
CENTRALIA*     PTCLDY    69  69  99 CALM      30.08R
SALEM*         MOCLDY    70  68  93 CALM      30.09R
METROPOLIS*    PTCLDY    71  71  99 CALM      30.08R FOG
$$

ILZ067-068-072-073-078-083-087-091-271300-
SOUTHEAST ILLINOIS

CITY           SKY/WX    TMP DP  RH WIND       PRES   REMARKS
LAWRENCEVILLE  CLOUDY    73  72  96 CALM      30.09R
FLORA*         CLOUDY    71  70  96 CALM      30.10R
FAIRFIELD*     CLOUDY    71  70  98 CALM      30.09R
HARRISBURG*    CLOUDY    70  70 100 CALM      30.08R FOG
ROBINSON*      CLOUDY    70  70 100 NW5       30.10R FOG
CARMI*         CLOUDY    71  71 100 CALM      30.07R FOG
$$

ABBREVIATIONS USED IN REMARKS
   TC - TEMPERATURE IN CELSIUS
  WCI - WIND CHILL INDEX
   HX - HEAT INDEX
  VSB - VISIBILITY
$$





USA.gov is the U.S. government's official web portal to all federal, state and local government web resources and services.